Weather History for Ardmore, OK

Change the Weather History Date:

Thursday, August 8, 2013

  Actual Average Record
Temperature  
Mean Temperature 86 °F -  
Max Temperature 98 °F 92 °F 109 °F (1999)
Min Temperature 75 °F 70 °F 64 °F (1997)
Cooling Degree Days 22    
Growing Degree Days 36 (Base 50)    
Moisture  
Dew Point 71 °F    
Average Humidity 68    
Maximum Humidity 92    
Minimum Humidity 39    
Precipitation  
Precipitation 0.09 in - - ()
Sea Level Pressure  
Sea Level Pressure 29.82 in    
Wind  
Wind Speed 4 mph (East)    
Max Wind Speed 12 mph    
Max Gust Speed -    
Visibility 9 miles    
Events Rain , Thunderstorm    
Averages and records for this station are not official NWS values.
T = Trace of Precipitation, MM = Missing Value Source: NWS Daily Summary

Daily Weather History Graph

Daily Weather History Graph

Search for Another Location

Airport:

Trip Planner

Search our weather history database for the weather conditions in past years. The results will help you decide how hot, cold, wet, or windy it might be!

Date:

Astronomy

Aug. 08, 2013 Rise Set
Actual Time 6:44 AM CDT 8:22 PM CDT
Civil Twilight 6:17 AM CDT 8:49 PM CDT
Nautical Twilight 5:44 AM CDT 9:21 PM CDT
Astronomical Twilight 5:10 AM CDT 9:55 PM CDT
Moon 8:24 AM CDT (8/8) 9:10 PM CDT (8/8)
Length of Visible Light 14h 32m
Length of Day
13h 38m
Waxing Crescent, 3% of the Moon is Illuminated
Aug 8
Waxing Crescent
Aug 14
First Quarter
Aug 20
Full
Aug 28
Last Quarter
Sep 5
New

Hourly Weather History & Observations

Time (CDT) Temp. Heat Index Dew Point Humidity Pressure Visibility Wind Dir Wind Speed Gust Speed Precip Events Conditions
12:15 AM 84.2 °F 89.6 °F 71.8 °F 66% 29.81 in 10.0 mi ESE 4.6 mph - N/A   Clear
12:35 AM 83.5 °F 89.1 °F 72.1 °F 69% 29.81 in 10.0 mi East 5.8 mph - N/A Thunderstorm Clear
12:55 AM 82.9 °F 88.0 °F 71.8 °F 69% 29.81 in 10.0 mi SE 3.5 mph - N/A   Clear
1:15 AM 81.7 °F 86.0 °F 71.6 °F 71% 29.80 in 10.0 mi ESE 4.6 mph - N/A   Clear
1:35 AM 81.7 °F 85.8 °F 70.9 °F 70% 29.80 in 10.0 mi East 4.6 mph - N/A   Clear
1:55 AM 82.4 °F 86.7 °F 70.7 °F 68% 29.83 in 10.0 mi West 8.1 mph - N/A   Scattered Clouds
2:15 AM 84.2 °F 88.7 °F 70.5 °F 63% 29.82 in 10.0 mi South 3.5 mph - N/A Thunderstorm Scattered Clouds
2:35 AM 85.1 °F 89.1 °F 69.1 °F 59% 29.83 in 10.0 mi Calm Calm - N/A Thunderstorm Clear
2:55 AM 86.9 °F 89.6 °F 66.6 °F 51% 29.81 in 10.0 mi WSW 6.9 mph - N/A   Clear
3:15 AM 84.7 °F 87.6 °F 67.3 °F 56% 29.81 in 10.0 mi South 5.8 mph - N/A   Scattered Clouds
3:35 AM 82.9 °F 85.8 °F 68.0 °F 60% 29.81 in 10.0 mi SE 4.6 mph - N/A   Clear
3:55 AM 81.3 °F 84.1 °F 68.2 °F 64% 29.81 in 10.0 mi SE 3.5 mph - N/A   Clear
4:15 AM 80.1 °F 82.7 °F 68.2 °F 67% 29.81 in 10.0 mi SSE 5.8 mph - N/A   Clear
4:35 AM 81.5 °F 84.1 °F 67.5 °F 62% 29.81 in 10.0 mi Calm Calm - N/A   Clear
4:55 AM 78.3 °F - 68.9 °F 73% 29.80 in 10.0 mi Calm Calm - N/A   Clear
5:15 AM 77.5 °F - 72.1 °F 83% 29.80 in 10.0 mi North 4.6 mph - N/A   Clear
5:35 AM 78.6 °F - 71.1 °F 78% 29.81 in 10.0 mi North 8.1 mph - N/A   Clear
5:55 AM 77.9 °F - 70.9 °F 79% 29.82 in 10.0 mi North 4.6 mph - N/A   Clear
6:15 AM 77.5 °F - 70.9 °F 80% 29.82 in 10.0 mi East 4.6 mph - N/A   Clear
6:35 AM 75.7 °F - 70.9 °F 85% 29.82 in 10.0 mi NE 3.5 mph - N/A   Clear
6:55 AM 77.0 °F - 69.8 °F 78% 29.84 in 10.0 mi NNE 4.6 mph - N/A   Clear
7:55 AM 78.8 °F - 71.6 °F 78% 29.87 in 7.0 mi Calm Calm - N/A   Clear
9:55 AM 86.0 °F 95.1 °F 75.2 °F 70% 29.89 in 7.0 mi ENE 11.5 mph - N/A   Clear
1:55 PM 95.0 °F 107.4 °F 75.2 °F 53% 29.85 in 7.0 mi ESE 4.6 mph - N/A   Clear
2:55 PM 95.0 °F 104.5 °F 73.4 °F 49% 29.84 in 10.0 mi ESE 3.5 mph - N/A   Clear
4:55 PM 98.6 °F 105.5 °F 69.8 °F 39% 29.82 in 10.0 mi SSW 4.6 mph - N/A   Clear
5:55 PM 96.8 °F 101.8 °F 68.0 °F 39% 29.79 in 10.0 mi Calm Calm - N/A   Clear
7:55 PM 87.8 °F 95.6 °F 73.4 °F 62% 29.80 in 10.0 mi Calm Calm - N/A   Clear
8:55 PM 84.2 °F 90.9 °F 73.4 °F 70% 29.82 in 10.0 mi Calm Calm - N/A   Clear
9:55 PM 82.4 °F 90.9 °F 77.0 °F 84% 29.83 in 10.0 mi Calm Calm - N/A   Clear
11:35 PM 82.0 °F 90.5 °F 77.5 °F 86% 29.87 in 7.0 mi NNE 6.9 mph - 0.03 in Rain Rain
11:55 PM 79.2 °F - 76.8 °F 92% 29.89 in 4.0 mi East 6.9 mph - 0.09 in Rain Light Rain